EDT,Max TemperatureF,Mean TemperatureF,Min TemperatureF,Max Dew PointF,MeanDew PointF,Min DewpointF,Max Humidity, Mean Humidity, Min Humidity, Max Sea Level PressureIn, Mean Sea Level PressureIn, Min Sea Level PressureIn, Max VisibilityMiles, Mean VisibilityMiles, Min VisibilityMiles, Max Wind SpeedMPH, Mean Wind SpeedMPH, Max Gust SpeedMPH,PrecipitationIn, CloudCover, Events, WindDirDegrees
2012-10-1,90,80,69,77,73,70,100,78,56,29.81,29.77,29.71,10,9,5,18,7,24,0.01,5,Rain-Thunderstorm,163
2012-10-2,87,81,74,74,73,72,100,80,59,30.01,29.87,29.77,10,10,7,16,8,21,0.02,5,Rain,206
2012-10-3,84,78,72,73,72,66,100,81,62,30.18,30.10,30.02,10,7,1,10,2,29,1.35,7,Rain,27
2012-10-4,87,80,72,77,72,70,100,85,70,30.22,30.18,30.14,10,6,0,22,2,25,1.04,7,Fog-Rain-Thunderstorm,350
2012-10-5,85,79,73,76,73,72,100,87,74,30.14,30.08,30.01,10,6,0,20,4,23,0.04,7,Fog-Rain-Thunderstorm,31
2012-10-6,86,79,71,76,73,70,100,83,65,30.01,29.96,29.91,10,8,4,13,3,15,0.10,6,Rain,48
2012-10-7,89,79,68,73,71,68,100,78,55,30.01,29.97,29.93,10,7,0,15,3,,0.00,4,Fog,161
2012-10-8,85,75,65,74,71,65,100,83,65,30.07,30.00,29.95,10,8,1,16,4,21,0.02,6,Rain,349
2012-10-9,66,63,59,65,61,58,100,94,87,30.13,30.08,30.04,10,4,1,10,5,14,0.00,7,,10
2012-10-10,80,68,56,65,59,55,100,76,51,30.17,30.11,30.05,10,4,0,10,2,14,0.00,4,Fog,321
2012-10-11,81,70,59,63,59,55,100,73,45,30.24,30.18,30.13,10,8,5,14,4,17,0.00,0,,23
2012-10-12,83,72,60,63,61,57,97,70,43,30.24,30.18,30.14,10,9,7,20,4,28,0.00,1,,34
2012-10-13,83,73,62,70,64,60,93,72,51,30.27,30.21,30.18,10,9,7,18,7,31,T,4,Rain,46
2012-10-14,83,75,66,72,69,65,100,83,65,30.18,30.12,30.02,10,6,1,16,5,21,0.43,6,Rain,86
2012-10-15,84,75,66,71,68,64,100,78,55,30.01,29.91,29.82,10,9,6,18,4,24,T,4,Rain,251
2012-10-16,77,68,58,67,57,54,93,70,47,29.94,29.89,29.87,10,10,8,16,8,21,0.00,4,,20
2012-10-17,77,67,57,65,61,55,93,81,69,29.95,29.89,29.84,10,10,7,14,3,16,0.00,6,,37
2012-10-18,85,73,61,71,65,61,100,76,51,29.89,29.85,29.79,10,6,0,10,4,15,0.00,6,Fog,236
2012-10-19,82,72,62,68,61,51,93,67,40,29.89,29.84,29.80,10,10,10,13,3,17,0.00,4,,312
2012-10-20,80,67,53,60,51,42,93,61,28,29.98,29.91,29.87,10,10,9,14,4,18,0.00,0,,278
2012-10-21,79,65,51,59,53,49,96,68,39,30.12,30.06,29.97,10,10,10,13,5,16,0.00,0,,32
2012-10-22,79,69,59,61,58,56,93,71,48,30.17,30.13,30.09,10,10,10,18,7,22,0.00,3,,25
2012-10-23,82,71,60,67,62,57,100,75,49,30.13,30.09,30.07,10,9,6,18,8,24,0.00,2,,29
2012-10-24,83,73,63,69,66,62,100,77,54,30.11,30.06,30.02,10,8,5,18,8,22,0.00,2,,30
2012-10-25,82,75,67,70,68,66,97,78,58,30.01,29.96,29.92,10,8,5,23,10,29,T,6,,36
2012-10-26,77,73,69,70,66,58,100,81,61,29.90,29.81,29.72,10,9,7,28,13,35,0.00,8,,10
2012-10-27,73,69,65,61,60,59,81,73,64,29.70,29.64,29.59,10,10,9,20,12,28,0.00,8,,327
2012-10-28,75,66,57,59,54,47,86,66,46,29.76,29.69,29.64,10,10,10,22,12,28,0.00,3,,292
2012-10-29,65,55,44,45,38,33,76,55,34,29.83,29.76,29.69,10,10,10,24,13,32,0.00,2,,284
2012-10-30,64,53,41,34,30,26,67,46,24,29.91,29.79,29.74,10,10,10,25,13,35,0.00,1,,259
2012-10-31,71,57,42,48,39,34,76,54,31,29.99,29.93,29.88,10,10,10,26,11,32,0.00,1,,254